Location: Hicks
(37.9226°N, 89.9954°W)
Time: 08:49:58
(UTC+00:00)

Cosmos 2221 - Pass Details

Date: 14 December 2025
Orbit: 569 x 589 km, 82.5° (Epoch: 24 January)

Event Time Altitude Azimuth Distance (km) Brightness Sun altitude
Rises 12:16:00 0° 347° (NNW) 2,779 5.6 -10.1°
Reaches altitude 10° 12:18:13 10° 343° (NNW) 1,877 4.7 -9.7°
Maximum altitude 12:22:15 54° 266° (W) 693 2.5 -9.0°
Drops below altitude 10° 12:26:16 10° 189° (S) 1,866 5.2 -8.2°
Sets 12:28:28 0° 185° (S) 2,761 6.2 -7.8°
